Location: ?????????
(42.1392°N, 44.1931°E)
Time: 08:36:24
(UTC+00:00)

STARLINK-27 - Pass Details

Date: 07 June 2020
Orbit: 434 x 436 km, 53.0° (Epoch: 06 July)

Event Time Altitude Azimuth Distance (km) Brightness Sun altitude
Exits shadow 22:52:40 20° 119° (ESE) 1,086 5.1 -20.2°
Drops below altitude 10° 22:54:49 10° 82° (E) 1,546 6.4 -20.1°
Enters shadow 23:50:19 -71° 234° (SW) 12,532 10.4 -14.4°
Maximum altitude 00:29:04 50° 328° (NNW) 563 3.7 -9.4°
